Clarkson, Mississippi
Current Conditions -  °F | °C
As of 8:15 PM on Friday 28 Nov 2014 (Local Time) from KSTF Reporting Station
Clear Clear  
Wind Chill: 38°   Ceiling: Unl
Heat Index: 41°   Visibility: NA
Dew Point: 30°   Wind: 5mph
Humidity: 65%   Direction: 170°S
Pressure: 30.23"   Gusts: NA
Location:  33.5435°N, 89.1359°W
Report Text: KSTF 290215Z AUTO 17004KT CLR 05/M01 A3023 RMK AO2 PWINO
Loading
Personal Weather Stations






























Interactive Weather Map New forecast layout! Learn more

10-Day Weather Forecast

Advertisements
Track Severe Weather on mobile